Regional Weather Roundup
Issued by NWS

Home | Current Version | Previous Version | Text Only | Print | Product List | Glossary On
Versions: 1 2 3 4 5 6 7 8 9 10 11 12 13 14 15 16 17 18 19 20 21 22 23 24 25 26 27 28 29 30 31 32 33 34 35 36 37 38 39 40 41 42 43 44 45 46 47 48 49 50
000
ASUS44 KFWD 230401
RWRTX
NORTH TEXAS HOURLY WEATHER ROUNDUP
NATIONAL WEATHER SERVICE FORT WORTH TX
1100 PM CDT FRI MAY 22 2015

NOTE: "FAIR" INDICATES FEW OR NO CLOUDS BELOW 12,000 FEET WITH NO
SIGNIFICANT WEATHER AND/OR OBSTRUCTIONS TO VISIBILITY.

TXZ118-119-230500-
DALLAS/FORT WORTH METROPLEX

CITY           SKY/WX    TMP DP  RH WIND       PRES   REMARKS
DFW AIRPORT    CLOUDY    66  65  96 NE3       30.10R
DALLAS LOVE    DRIZZLE   70  65  84 E7        30.10R
FTW MEACHAM    LGT RAIN  68  66  93 NE8       30.09S FOG
DAL-EXECUTIVE  LGT RAIN  70  67  90 SE5       30.10R
FTW-ALLIANCE   CLOUDY    65  64  97 E3        30.10S FOG
FTW-NAS-JRB    LGT RAIN  68  67  96 E3        30.10S FOG
ARLINGTON      LGT RAIN  72  67  84 E5        30.10R
GRAND PRAIRIE  MOCLDY    71  68  91 E6        30.11S
ADDISON        CLOUDY    69  66  88 E7        30.13R
MESQUITE       CLOUDY    70  67  90 E5        30.11R
LANCASTER      CLOUDY    71  66  85 CALM      30.12R
$$

TXZ091>094-102>105-117-120-121-131>134-230500-
NORTH CENTRAL TEXAS

CITY           SKY/WX    TMP DP  RH WIND       PRES   REMARKS
SHRMAN/DENISON CLOUDY    62  62 100 E5        30.14S
GAINESVILLE    CLOUDY    60  59  96 E6        30.15S
BRIDGEPORT     CLOUDY    62  62 100 E3        30.13R FOG
DECATUR        CLOUDY    62  62 100 E7        30.12R FOG
DENTON         LGT RAIN  64  63  96 NE6       30.11R
MCKINNEY       CLOUDY    66  62  87 E5        30.12R
ROCKWALL       CLOUDY    69  64  85 E8        30.11R
TERRELL        CLOUDY    71  66  84 E5        30.12R
WAXAHACHIE     CLOUDY    71  69  96 E3        30.12R
CLEBURNE       MOCLDY    72  72 100 E6        30.12R
GRANBURY       CLOUDY    68  67  94 CALM      30.10S
$$

TXZ083>090-098>101-113>116-127>130-139>142-154-155-230500-
WESTERN NORTH TEXAS

CITY           SKY/WX    TMP DP  RH WIND       PRES   REMARKS
WICHITA FALLS  LGT RAIN  59  58  96 E13       30.10S FOG
WF-KICKAPOO    DRIZZLE   61  60  95 E10       30.11S
VERNON         CLOUDY    59  55  87 E10       30.11S
ABILENE        CLOUDY    70  66  87 SE14      30.06R
BRECKENRIDGE   CLOUDY    69  68  97 SE9       30.07R
MINERAL WELLS  CLOUDY    65  64  97 E7        30.08S FOG
STEPHENVILLE   CLOUDY    69  66  92 SE7       30.12R
COMANCHE       CLOUDY    69  69 100 SE8       30.09R FOG
COLEMAN        CLOUDY    70  69  96 SE15      30.07S
BRADY          CLOUDY    72  72 100 SE9       30.06S
$$

TXZ143>147-156>162-174-175-230500-
CENTRAL TEXAS

CITY           SKY/WX    TMP DP  RH WIND       PRES   REMARKS
WACO           CLOUDY    73  68  84 SE7       30.09R
WACO-TSTC      CLOUDY    73  68  83 E5        30.10R
WACO-MCGREGOR  PTCLDY    72  64  78 SE9       30.10R
HILLSBORO      MOCLDY    72  66  82 SE9       30.10R
CORSICANA      PTCLDY    72  68  87 SE8       30.12R
MEXIA          PTCLDY    70  67  90 SE7       30.11R
HEARNE         CLEAR     72  68  88 E3        30.11R
TEMPLE         MOCLDY    72  64  78 E7        30.08R
KILLEEN        NOT AVBL
KILLEEN-SKYLRK PTCLDY    72  66  83 SE8       30.09R
HAMILTON       CLOUDY    71  71 100 SE10G17   30.10R
LAMPASAS       CLOUDY    71  69  94 SE7       30.08S
$$

TXZ095>097-106>112-122>126-135>138-148>153-164>167-230500-
EAST TEXAS

CITY           SKY/WX    TMP DP  RH WIND       PRES   REMARKS
PARIS          PTCLDY    63  57  82 E10       30.15S
SULPHUR SPRNGS CLOUDY    67  63  84 E7        30.16R
MOUNT PLEASANT PTCLDY    67  62  84 SE3       30.17S
GILMER         MOCLDY    69  64  84 E5        30.16S
MINEOLA        CLEAR     70  66  88 CALM      30.14S
TYLER          PTCLDY    71  64  78 SE12      30.13S
LONGVIEW       PTCLDY    70  65  84 SE7       30.15R
ATHENS         CLOUDY    70  64  83 SE6       30.11R
PALESTINE      PTCLDY    71  67  88 E6        30.14R
JACKSONVILLE   MOCLDY    70  67  89 E6        30.16S
NACOGDOCHES    MOCLDY    70  64  83 E7        30.14S
LUFKIN         CLEAR     73  67  81 E7        30.13S
$$

SUPPLEMENTAL OBSERVATIONS (CENTRAL)

CITY           SKY/WX    TMP DP  RH WIND       PRES   REMARKS
$$

SUPPLEMENTAL OBSERVATIONS (WEST)

CITY           SKY/WX    TMP DP  RH WIND       PRES   REMARKS
$$

SUPPLEMENTAL OBSERVATIONS (EAST)

CITY           SKY/WX    TMP DP  RH WIND       PRES   REMARKS
$$

SUPPLEMENTAL OBSERVATIONS ARE A COLLECTION OF AUTOMATED INSTRUMENTS
THAT ARE MAINTAINED BY A VARIETY OF FEDERAL AND STATE AGENCIES.
CERTAIN ELEMENTS...SUCH AS HUMIDITY VALUES AND SUSTAINED WIND
SPEEDS...MAY BE APPROXIMATED.




USA.gov is the U.S. government's official web portal to all federal, state and local government web resources and services.